Weather History for Resia Pass, Italy

Change the Weather History Date:

Monday, October 28, 2013

  Actual Average Record
Temperature  
Mean Temperature 50 °F -  
Max Temperature 53 °F 48 °F 68 °F (2006)
Min Temperature 46 °F 33 °F 19 °F (2003)
Degree Days  
Heating Degree Days 16    
Moisture  
Dew Point 47 °F    
Average Humidity 93    
Maximum Humidity 100    
Minimum Humidity 77    
Precipitation  
Precipitation 0.00 in - - ()
Sea Level Pressure  
Sea Level Pressure 30.05 in    
Wind  
Wind Speed 4 mph ()    
Max Wind Speed 10 mph    
Max Gust Speed -    
Visibility 3.9 miles    
Events      
Averages and records for this station are not official NWS values.
T = Trace of Precipitation, MM = Missing Value Source: Averaged Metar Reports

Daily Weather History Graph

Daily Weather History Graph

Search for Another Location

Airport:

Trip Planner

Search our weather history database for the weather conditions in past years. The results will help you decide how hot, cold, wet, or windy it might be!

Date:

Astronomy

Oct. 28, 2013 Rise Set
Actual Time 6:54 AM CET 5:08 PM CET
Civil Twilight 6:23 AM CET 5:39 PM CET
Nautical Twilight 5:47 AM CET 6:15 PM CET
Astronomical Twilight 5:12 AM CET 6:50 PM CET
Moon 12:09 AM CET 2:02 PM CET
Length of Visible Light 11h 16m
Length of Day
10h 13m
Last Quarter, 36% of the Moon is Illuminated
Oct 28
Last Quarter
Nov 3
New
Nov 10
First Quarter
Nov 17
Full
Nov 25
Last Quarter

Hourly Weather History & Observations

Time (CET) Temp. Windchill Dew Point Humidity Pressure Visibility Wind Dir Wind Speed Gust Speed Precip Events Conditions
12:55 AM 46.4 °F - 44.6 °F 93% 30.09 in - Calm Calm - N/A   Clear
1:55 AM 46.4 °F - 44.6 °F 93% 30.09 in - Calm Calm - N/A   Clear
4:55 AM 46.4 °F - 46.4 °F 100% 30.09 in - Calm Calm - N/A   Clear
5:55 AM 46.4 °F - 44.6 °F 93% 30.09 in - Calm Calm - N/A   Clear
6:55 AM 46.4 °F 43.5 °F 44.6 °F 93% 30.06 in 6.2 mi SW 5.8 mph - N/A   Scattered Clouds
7:55 AM 46.4 °F - 44.6 °F 93% 30.06 in 6.2 mi Calm Calm - N/A   Partly Cloudy
8:55 AM 46.4 °F 42.9 °F 44.6 °F 93% 30.06 in 6.2 mi SSW 6.9 mph - N/A   Partly Cloudy
9:55 AM 50.0 °F - 46.4 °F 87% 30.09 in 6.2 mi SE 10.4 mph - N/A   Partly Cloudy
10:55 AM 50.0 °F - 46.4 °F 87% 30.06 in 4.3 mi SSE 6.9 mph - N/A   Scattered Clouds
11:55 AM 51.8 °F - 48.2 °F 88% 30.06 in 4.3 mi SE 9.2 mph - N/A   Mostly Cloudy
12:55 PM 53.6 °F - 46.4 °F 77% 30.04 in 3.7 mi SE 9.2 mph - N/A   Mostly Cloudy
1:55 PM 53.6 °F - 46.4 °F 77% 30.01 in 3.7 mi South 9.2 mph - N/A   Mostly Cloudy
2:55 PM 51.8 °F - 50.0 °F 94% 30.01 in 3.7 mi SE 4.6 mph - N/A   Mostly Cloudy
3:55 PM 51.8 °F - 48.2 °F 88% 30.01 in 3.7 mi SE 8.1 mph - N/A   Mostly Cloudy
4:55 PM 53.6 °F - 50.0 °F 88% 30.01 in 2.5 mi SSE 8.1 mph - N/A   Overcast
5:55 PM 50.0 °F - 50.0 °F 100% 30.01 in 2.5 mi South 5.8 mph - N/A   Overcast
6:55 PM 50.0 °F - 50.0 °F 100% 30.01 in 2.5 mi South 6.9 mph - N/A   Overcast
7:55 PM 50.0 °F - 48.2 °F 94% 30.04 in 2.5 mi SW 6.9 mph - N/A   Overcast
8:55 PM 48.2 °F - 48.2 °F 100% 30.04 in 2.5 mi SE 3.5 mph - N/A   Overcast
9:55 PM 48.2 °F - 48.2 °F 100% 30.04 in 2.5 mi SE 4.6 mph - N/A   Overcast
10:55 PM 48.2 °F - 48.2 °F 100% 30.04 in 2.5 mi SSE 4.6 mph - N/A   Overcast
11:55 PM 48.2 °F - 48.2 °F 100% 30.04 in 3.7 mi South 3.5 mph - N/A   Overcast